Location: Krakow
(50.0830°N, 19.9170°E)
Time: 03:54:24
(UTC+02:00)

Tiros 1 - Pass Details

Date: 13 February 2023
Orbit: 627 x 662 km, 48.4° (Epoch: 25 March)

Event Time Altitude Azimuth Distance (km) Brightness Sun altitude
Rises 20:03:09 0° 217° (SW) 2,904 10.7 -30.5°
Enters shadow 20:04:40 - 211° (SSW) 2,354 10.2 -30.8°
Reaches altitude 10° 20:05:43 10° 205° (SSW) 1,997 - -30.9°
Maximum altitude 20:09:34 27° 148° (SSE) 1,205 - -31.5°
Drops below altitude 10° 20:13:27 10° 91° (E) 2,003 - -32.1°
Sets 20:16:02 0° 79° (E) 2,914 - -32.5°
